This is the latest recevied weather packets stored in our database for station/object K3HM. If no packets are shown the sender has not sent any weather packets the latest 10 day(s).
| Time | Temp. | Humidity | Pressure | Rain* | Wind** | Luminosity | Snow |
|---|---|---|---|---|---|---|---|
| 1777590021 | 6.11° C | 81% | 1014.1 hPa | 0 mm | - | 84 W/m² | - |
| 1777589716 | 5.56° C | 82% | 1014.1 hPa | 0 mm | - | 81 W/m² | - |
| 1777589415 | 6.11° C | 82% | 1014 hPa | 0 mm | - | 63 W/m² | - |
| 1777589111 | 6.11° C | 81% | 1014.1 hPa | 0 mm | - | 73 W/m² | - |
| 1777588807 | 5.56° C | 83% | 1013.9 hPa | 0 mm | - | 91 W/m² | - |
| 1777588503 | 5.56° C | 84% | 1013.9 hPa | 0 mm | - | 28 W/m² | - |
| 1777588198 | 5.56° C | 83% | 1013.8 hPa | 0 mm | - | 25 W/m² | - |
| 1777587894 | 5.56° C | 83% | 1013.9 hPa | 0 mm | - | 22 W/m² | - |
| 1777587590 | 5.56° C | 83% | 1013.8 hPa | 0 mm | - | 37 W/m² | - |
| 1777587285 | 5.56° C | 83% | 1014 hPa | 0 mm | - | 44 W/m² | - |
| 1777586981 | 5.56° C | 83% | 1014.1 hPa | 0 mm | - | 49 W/m² | - |
| 1777586677 | 5.56° C | 85% | 1013.9 hPa | 0 mm | - | 58 W/m² | - |
| 1777586372 | 5.56° C | 84% | 1013.8 hPa | 0 mm | - | 52 W/m² | - |
| 1777586072 | 5.56° C | 84% | 1013.8 hPa | 0 mm | - | 56 W/m² | - |
| 1777585770 | 5.56° C | 84% | 1013.7 hPa | 0 mm | - | 51 W/m² | - |
| 1777585465 | 5.56° C | 84% | 1013.5 hPa | 0 mm | - | 52 W/m² | - |
| 1777585161 | 5.56° C | 83% | 1013.4 hPa | 0 mm | - | 43 W/m² | - |
| 1777584857 | 5.56° C | 83% | 1013.7 hPa | 0 mm | - | 47 W/m² | - |
| 1777584555 | 5.56° C | 83% | 1013.4 hPa | 0 mm | - | 44 W/m² | - |
| 1777584251 | 5.56° C | 83% | 1013.3 hPa | 0 mm | - | 41 W/m² | - |
| 1777583951 | 5.56° C | 83% | 1013.3 hPa | 0 mm | - | 49 W/m² | - |
| 1777583647 | 5.56° C | 83% | 1013.2 hPa | 0 mm | - | 56 W/m² | - |
| 1777583346 | 5.56° C | 83% | 1013.2 hPa | 0 mm | - | 77 W/m² | - |
| 1777583040 | 5.56° C | 84% | 1013.3 hPa | 0 mm | - | 83 W/m² | - |
| 1777582737 | 5.56° C | 85% | 1013.1 hPa | 0 mm | - | 78 W/m² | - |
* Rain latest hour (hover to see other rain measurements)
** Current wind speed in m/s (hover to see current wind gust speed)